Location: Caracas
(10.5033°N, 66.8422°W)
Time: 05:30:40
(UTC-04:00)

Hubble Space Telescope - Pass Details

Date: 17 November 2017
Orbit: 537 x 541 km, 28.5° (Epoch: 22 November)

Event Time Altitude Azimuth Distance (km) Brightness Sun altitude
Exits shadow 05:38:07 10° 327° (NNW) 1,796 3.0 -11.4°
Reaches altitude 10° 05:38:20 10° 330° (NNW) 1,774 3.0 -11.4°
Maximum altitude 05:39:22 11° 345° (NNW) 1,724 3.0 -11.1°
Drops below altitude 10° 05:40:24 10° 359° (N) 1,775 3.2 -10.9°
Sets 05:44:26 0° 38° (NE) 2,666 4.6 -9.9°
